Location: Caribou
(46.8667°N, 68.0167°W)
Time: 08:03:16
(UTC-05:00)

Daily predictions for brighter satellites

Satellite Brightness Start Highest point End
(mag) Time Altitude Azimuth Time Altitude Azimuth Time Altitude Azimuth
FALCON 9 R/B 4.4 17:13:12 10° SW 17:18:38 38° SSE 17:35:14 10° ESE
NOSS 3-2 (A) 3.5 17:25:24 10° SW 17:31:23 84° SE 17:38:06 10° NE
CZ-4 R/B 2.5 17:32:50 10° S 17:36:46 50° W 17:40:38 10° NNW
Cosmos 1812 3.0 17:33:15 10° N 17:37:01 46° ENE 17:40:45 10° SSE
Cosmos 2333 Rocket 4.0 17:34:26 10° NW 17:39:37 38° WSW 17:44:46 10° S
SPOT 3 Rocket 3.6 17:34:49 10° SSE 17:39:55 59° ENE 17:45:04 10° N
Cosmos 2285 Rocket 4.1 17:33:48 10° SSW 17:40:09 90° NW 17:46:36 10° NNE
Aureole 3 4.3 17:35:09 10° SSE 17:40:30 43° E 17:44:46 10° NNE
Cosmos 2082 3.7 17:38:25 10° SSW 17:43:57 64° ESE 17:49:33 10° NNE
Meteor 1-18 Rocket 4.5 17:39:43 10° N 17:45:07 45° ENE 17:50:25 10° SE
Okean 3 3.6 17:41:07 10° N 17:45:12 49° ENE 17:49:15 10° SSE
Cosmos 1674 Rocket 3.5 17:41:02 10° N 17:45:22 61° ENE 17:49:38 10° SSE
Cosmos 1420 Rocket 4.1 17:43:32 10° NNW 17:48:47 62° ENE 17:54:02 10° SE
USA 238 DEB 4.4 17:42:13 10° WSW 17:48:58 55° NW 17:55:52 10° NE
USA 238 4.4 17:42:19 10° WSW 17:49:04 55° NW 17:55:58 10° NE
Cosmos 2034 Rocket 4.5 17:44:43 10° N 17:50:42 40° ENE 17:56:38 10° SE
Cosmos 921 Rocket 3.7 17:48:52 10° N 17:53:04 36° ENE 17:57:13 10° SE
Cosmos 1908 Rocket 4.0 17:52:59 10° SSE 17:57:09 39° E 18:01:19 10° NNE
Meteor 1-25 Rocket 4.4 17:52:02 10° SSE 17:57:19 49° E 18:02:41 10° NNE
Cosmos 405 2.9 17:55:04 10° S 17:58:33 83° E 18:02:06 10° NNE
YAOGAN 1 4.0 17:54:39 10° S 17:58:48 44° W 18:02:57 10° NNW
Cosmos 1733 Rocket 3.2 17:58:25 10° SSW 18:02:44 80° W 18:07:05 10° N
Cosmos 2084 Rocket 4.3 17:58:51 10° WSW 18:03:04 49° NW 18:07:07 10° NNE
Tiangong 2 3.8 18:04:10 10° WSW 18:06:04 15° SSW 18:07:58 10° S
Cosmos 44 Rocket 3.5 18:01:10 10° NW 18:06:13 83° SW 18:11:20 10° SSE
EO 1 Del DPAF 3.2 18:03:04 10° NNE 18:06:54 65° ESE 18:10:41 10° S
DMSP B5D1-3 4.5 18:02:53 10° NNE 18:08:03 75° ESE 18:13:12 10° S
FREGAT/IRIS 2.6 18:07:32 10° SSE 18:10:26 54° ENE 18:13:22 10° N
USA 215 4.1 18:05:38 12° ENE 18:10:53 31° SE 18:16:31 10° S
Cosmos 1437 Rocket 3.6 18:07:22 10° SSE 18:10:55 29° E 18:14:30 10° NNE
SKYMED 2 4.3 18:07:01 10° N 18:11:18 56° WNW 18:15:32 10° SSW
Landsat 4 3.8 18:11:14 10° NNE 18:15:00 81° WNW 18:18:45 10° SSW
SeaSat 1 2.8 18:10:52 10° SE 18:15:33 45° NE 18:20:15 10° NNW
CZ-4C R/B 3.5 18:14:30 10° NNW 18:20:42 36° NNE 18:25:28 19° E
Cosmos 1975 Rocket 3.4 18:16:39 10° N 18:20:55 45° ENE 18:25:12 10° SSE
COSMOS 2455 4.1 18:18:19 10° SE 18:22:12 18° ESE 18:22:19 18° ESE
Cosmos 468 4.4 18:18:06 10° SSW 18:23:21 71° ESE 18:28:35 10° NNE
Envisat 3.3 18:19:06 10° SE 18:23:55 46° ENE 18:28:46 10° N
Cosmos 1513 Rocket 4.5 18:18:32 10° N 18:24:56 82° E 18:31:12 10° S
NOSS 3-2 (C) 3.9 18:19:27 10° SW 18:25:27 64° NW 18:32:13 10° NE
Thor Agena Rocket 3.9 18:22:53 10° NNE 18:27:40 39° E 18:32:24 10° SSE
FengYun 1-2 T 4.3 18:22:44 10° SSE 18:28:15 83° WSW 18:33:46 10° NNW
Cosmos 1943 4.0 18:23:39 10° NNW 18:28:44 33° NE 18:31:19 23° E
Cosmos 1939 Rocket 3.9 18:28:18 25° E 18:29:00 26° ENE 18:32:27 10° N
SL-8 R/B 3.7 18:24:55 10° WSW 18:29:40 67° SSE 18:32:22 25° E
Resurs 01 Rocket 2.4 18:28:29 23° ESE 18:30:17 31° ENE 18:34:12 10° N
ALOS 4.3 18:26:29 10° SSW 18:30:37 31° W 18:34:47 10° NNW
Cosmos 1110 Rocket 4.2 18:30:12 10° NNW 18:35:20 49° ENE 18:38:55 19° SE
Cosmos 1269 Rocket 4.1 18:30:36 10° S 18:35:43 54° ESE 18:40:52 10° NNE
USA 32 3.9 18:30:41 10° S 18:35:53 72° E 18:41:07 10° N
HJ-1C 3.3 18:33:27 10° SSE 18:36:52 88° E 18:40:19 10° NNW
YAOGAN 6 3.8 18:40:15 25° NE 18:40:15 25° NE 18:42:32 10° N
Cosmos 1378 Rocket 4.3 18:38:54 10° NNW 18:43:13 55° W 18:47:33 10° S
Cosmos 2227 Rocket 3.5 18:39:35 10° WSW 18:44:51 39° NW 18:50:10 10° NNE
USA 267 3.6 18:42:43 25° E 18:46:27 52° NNE 18:52:44 10° NW
CENTAUR R/B 2.5 18:40:53 10° SW 18:47:00 87° SE 18:54:05 10° NE
SL-16 R/B 3.4 18:42:17 10° NW 18:47:38 44° WSW 18:52:56 10° S
Tsikada Rocket 4.0 18:43:05 10° S 18:49:25 66° E 18:55:47 10° NNE
ATLAS CENTAUR R/B 2.3 18:45:56 10° NNW 18:49:37 30° NE 18:49:50 30° NE
Cosmos 1633 4.1 18:50:58 10° SW 18:54:17 37° WNW 18:57:39 10° N
Cosmos 1782 Rocket 3.5 18:50:29 10° S 18:54:55 90° SSW 18:59:22 10° N
SJ-6B 3.0 18:51:22 10° S 18:55:07 67° WSW 18:59:00 10° NNW
USA 186 2.2 18:56:26 48° NNE 18:56:26 48° NNE 18:59:05 10° N
H-2A R/B 4.0 19:00:00 15° NE 19:00:00 15° NE 19:01:54 10° NNE
Cosmos 2297 Rocket 3.7 18:53:29 10° WSW 18:58:40 36° NW 19:03:54 10° NNE
Sich 1 Rocket 4.1 18:56:16 10° SSW 19:00:43 61° W 19:05:10 10° N
Meteor 1-13 Rocket 4.0 18:55:11 10° N 19:00:45 76° ENE 19:06:16 10° SSE
ERS-2 4.1 19:00:33 10° SSW 19:03:50 30° W 19:07:10 10° NW
CRYOSAT 2 4.4 19:00:28 10° N 19:05:22 83° W 19:10:14 10° S
Cosmos 1603 3.6 19:00:45 10° NNW 19:06:26 86° WSW 19:10:05 23° SSE
Cosmos 1331 Rocket 3.9 19:02:05 10° NNW 19:07:26 78° ENE 19:09:49 34° SSE
Geosat 4.2 19:14:11 47° SE 19:14:11 47° SE 19:18:28 10° S
Spot 2 Rocket 3.4 19:12:22 46° SE 19:13:45 67° ENE 19:18:48 10° N
BREEZE-M DEB (TANK) 3.0 19:12:38 10° W 19:14:37 34° SW 19:14:37 34° SW
Okean 2 Rocket 2.9 19:10:51 10° S 19:15:14 89° W 19:19:42 10° N
CZ-2D R/B 4.4 19:13:46 10° S 19:17:31 44° W 19:21:16 10° NNW
ATLAS 3B R/B 4.4 19:12:27 10° W 19:18:16 26° NNW 19:23:55 10° NNE
Cosmos 2263 Rocket 4.1 19:22:07 10° S 19:23:05 15° S 19:23:05 15° S
Cosmos 2279 Rocket 4.0 19:23:37 10° N 19:29:44 54° ENE 19:29:44 54° ENE
Cosmos 1302 Rocket 3.9 19:31:59 10° NNW 19:37:00 77° NNE 19:37:00 77° NNE
Meteor 2-4 Rocket 4.1 19:35:52 10° NNW 19:41:38 63° W 19:45:18 22° S
ARGOS 4.3 19:47:21 32° NNE 19:47:21 32° NNE 19:50:29 10° N
Meteor 1-5 Rocket 4.2 19:41:49 10° S 19:47:43 87° E 19:53:45 10° NNE
Cosmos 1634 Rocket 4.1 19:42:40 10° NNW 19:48:49 70° W 19:52:05 29° S
Meteor 1-11 Rocket 4.0 19:44:52 10° SSW 19:50:25 65° WNW 19:56:07 10° N
SeaSat 1 4.1 19:50:15 17° SSW 19:53:12 30° WSW 19:57:32 10° NW
USA 215 3.1 19:52:59 59° NE 19:54:24 87° NW 20:00:57 10° WSW
Resurs 01 Rocket 3.3 20:06:03 28° WSW 20:06:45 30° W 20:10:39 10° NW
COSMOS 2455 3.4 20:01:18 10° SSW 20:05:36 49° SW 20:05:36 49° SW
CZ-4C R/B 2.8 20:02:51 10° NW 20:09:58 80° SW 20:10:42 72° S
Cosmos 1943 3.9 20:07:33 10° NW 20:12:58 47° WSW 20:13:11 47° WSW
BREEZE-M DEB (TANK) 4.3 20:12:14 10° WSW 20:27:19 18° ENE 20:33:31 10° ENE
ATLAS CENTAUR R/B 4.0 20:24:44 10° NW 20:26:07 19° WNW 20:26:07 19° WNW
USA 267 3.5 20:30:04 65° W 20:30:04 65° W 20:35:53 10° NW
H-2A R/B 4.0 20:40:37 24° NNW 20:40:37 24° NNW 20:42:43 10° NNW
CENTAUR R/B 4.1 20:32:51 10° W 20:38:36 32° NNW 20:42:04 22° NNE
